Regional Weather Roundup
Issued by NWS

Home | Current Version | Previous Version | Text Only | Print | Product List | Glossary On
Versions: 1 2 3 4 5 6 7 8 9 10 11 12 13 14 15 16 17 18 19 20 21 22 23 24 25 26 27 28 29 30 31 32 33 34 35 36 37 38 39 40 41 42 43 44 45 46 47 48 49 50
000
ASUS43 KMKX 252321
RWRWI

WISCONSIN REGIONAL WEATHER ROUNDUP
NATIONAL WEATHER SERVICE MILWAUKEE/SULLIVAN WI
600 PM CDT MON SEP 25 2017

NOTE: "FAIR" INDICATES FEW OR NO CLOUDS BELOW 12,000 FEET WITH NO
SIGNIFICANT WEATHER AND/OR OBSTRUCTIONS TO VISIBILITY.

WIZ001-002-006>008-014>016-023>028-260000-
NORTHWEST WISCONSIN

CITY           SKY/WX    TMP DP  RH WIND       PRES   REMARKS
SUPERIOR ARPT  CLOUDY    59  55  87 CALM      30.00S
ASHLAND        HVY RAIN  58  57  97 N3        30.00R FOG
HAYWARD        RAIN      59  57  93 NW5       30.00R
SIREN          CLOUDY    59  55  87 N6        30.00S
CUMBERLAND     CLOUDY    57  55  94 N10       29.98S
RICE LAKE      CLOUDY    61  58  90 N10       29.98S
CHETEK         CLOUDY    64  63  97 N6        29.95S
LADYSMITH      CLOUDY    67  65  93 NW9       29.95R
EAU CLAIRE     CLOUDY    70  66  87 NW10      29.91R
MENOMONIE      CLOUDY    67  63  85 NW13      29.93S
NEW RICHMOND   CLOUDY    60  58  93 N7        29.98F
OSCEOLA        CLOUDY    60  60 100 N6        30.01F
$$

WIZ003>005-009-010-017-018-260000-
NORTH CENTRAL WISCONSIN

CITY           SKY/WX    TMP DP  RH WIND       PRES   REMARKS
MANITOWISH WTR CLOUDY    66  66 100 N7        29.93F
ARBOR VITAE    CLOUDY    67  65  91 CALM      29.92F
WOODRUFF       CLOUDY    67  65  91 CALM      29.92F
RHINELANDER    CLOUDY    75  64  68 E3        29.92F
EAGLE RIVER    MOCLDY    72  59  63 CALM      29.92F
LAND O LAKES   TSTM      67  64  92 NE9       29.95F
PHILLIPS       CLOUDY    66  65  97 CALM      29.92F VSB 3/4
TOMAHAWK       PTCLDY    76  66  70 CALM      29.91F
MEDFORD        RAIN      67  65  91 SE8       29.92S
MERRILL        CLOUDY    80  66  62 SW3       29.91F HX  82
$$

WIZ029-030-035-036-043>047-260000-
CENTRAL WISCONSIN

CITY           SKY/WX    TMP DP  RH WIND       PRES   REMARKS
WAUSAU         MOCLDY    80  63  55 CALM      29.89F HX  81
MOSINEE        PTCLDY    79  66  65 VRB5      29.92S HX  81
MARSHFIELD     CLOUDY    72  64  76 SW6       29.92S
STEVENS POINT  MOCLDY    77  62  59 SW10      29.92R
WAUPACA        CLEAR     82  64  54 CALM      29.90S HX  84
WAUTOMA        CLOUDY    80  65  59 W17       29.91R HX  82
WISC RAPIDS    CLOUDY    75  61  61 W6        29.93R
CAMP DOUGLAS   MOCLDY    70  64  83 W3        29.90F
$$

WIZ011>013-019>022-031-037>040-048>050-260000-
NORTHEAST WISCONSIN

CITY           SKY/WX    TMP DP  RH WIND       PRES   REMARKS
ANTIGO         MOCLDY    76  64  66 S6        29.93F
SHAWANO        CLEAR     84  63  49 S3        29.90S HX  85
OCONTO         CLEAR     79  65  62 S5        29.91R HX  81
STURGEON BAY   CLEAR     76  63  64 S13       29.93F
GREEN BAY      CLEAR     82  64  54 SE12      29.91R HX  83
MANITOWOC      CLEAR     75  65  70 S13       29.94S
APPLETON       PTCLDY    84  55  37 S7        29.90S HX  83
CLINTONVILLE   CLEAR     81  63  54 SE3       29.90S HX  82
OSHKOSH        CLEAR     82  66  58 SE9       29.90S HX  84
$$

WIZ032>034-041-042-053>061-260000-
SOUTHWEST WISCONSIN

CITY           SKY/WX    TMP DP  RH WIND       PRES   REMARKS
LA CROSSE      CLOUDY    73  67  81 SE5       29.91R
SPARTA         CLOUDY    67  64  93 SW5       29.93R
VIROQUA        CLOUDY    66  65  96 S10       29.95S
BOSCOBEL       LGT RAIN  68  65  90 SW10      29.97R
PRAIRIE DU CHI CLOUDY    69  65  86 W10       29.93R
PLATTEVILLE    CLEAR     74  65  72 N8        29.92F
$$

WIZ056-057-062-063-064-067-068-260000-
SOUTH CENTRAL WISCONSIN

CITY           SKY/WX    TMP DP  RH WIND       PRES   REMARKS
REEDSBURG      CLOUDY    69  69 100 SW9       29.93R
BARABOO/DELLS  MOCLDY    75  62  64 NW6       29.92R
LONE ROCK      LGT RAIN  73  66  78 NW14      29.93R
MINERAL POINT  PTCLDY    72  63  73 N10G20    29.93F
MADISON        PTCLDY    87  59  38 VRB5      29.90R HX  86
MIDDLETON      CLEAR     88  55  32 S7        29.90S HX  86
WATERTOWN      CLEAR     85  60  42 SE5       29.90S HX  85
MONROE         CLEAR     86  54  32 S6        29.91S HX  84
JANESVILLE     PTCLDY    90  54  29 S7        29.90S HX  87
$$

WIZ051-052-058>065-066-070>072-260000-
SOUTHEAST WISCONSIN

CITY           SKY/WX    TMP DP  RH WIND       PRES   REMARKS
MILWAUKEE      PTCLDY    82  61  48 SE9       29.93S HX  83
WAUKESHA       PTCLDY    82  54  36 SE9       29.95R HX  81
MILWAUKEE/TIMM PTCLDY    84  48  28 S10G16    29.94R HX  82
RACINE         CLEAR     81  63  54 SE12      29.95S HX  82
BURLINGTON     CLEAR     82  58  44 SE6       29.93S HX  81
KENOSHA        CLEAR     82  59  45 SE9       29.94S HX  82
FOND DU LAC    CLEAR     83  60  45 SE12      29.91S HX  83
SHEBOYGAN      CLEAR     77  66  68 S9        29.94S
WEST BEND        N/A     79  55  44 SE7       29.94S
JUNEAU         PTCLDY    83  64  52 E9        29.92S HX  84
$$

LSZ147-162-260000-
LAKE SUPERIOR

STATION/POSITION TIME  TEMP    WIND        PRES    WAVE
                       AIR SEA DIR/SP/G            HT/PER
                 (UTC) (F)     (DEG/KT/KT) (MB)    (FT/S)
W MID LAKE BUOY  2250   59 57   20/  4/  4 1014.9R   0
DEVILS ISLAND    2300   61     290/  4/  5 1015.7R
SAXON HARBOR     2240   60     360/ 11/ 13 1014.9R
$$

LMZ867-665-643>646-260000-
LAKE MICHIGAN

STATION/POSITION TIME  TEMP    WIND        PRES    WAVE
                       AIR SEA DIR/SP/G            HT/PER
                 (UTC) (F)     (DEG/KT/KT) (MB)    (FT/S)
S GREEN BAY BUOY 2200   77 72  130/  8/ 10 1012.7
N MID LAKE BUOY  2250   69 68  190/  8/  8 1014.0F   1/ 4
NORTHPORT PIER   2240   76     170/  7/ 11 1012.9F
KEWAUNEE LAKESHO 2254   69     180/ 10/ 11 1012.8F
SHEBOYGAN LAKESH 2300   72     170/  9/ 10 1013.2F
PORT WASHINGTON  2230   75     180/  2/  3 1014.6S
ATWATER BUOY     2209   67 62  200/  6/  8 1014.0R
MILWAUKEE LAKESH 2300   69     160/ 10/ 10   N/A
S MID LAKE BUOY  2250   74 72  140/  4/  4 1014.0R   1
KENOSHA   LAKESH 2300   76     170/  8/  9 1013.2
$$

TC  - TEMPERATURE IN CELSIUS
VSB - VISIBILITY IN STATUTE MILES
WCI - WIND CHILL INDEX
HX  - HEAT INDEX





USA.gov is the U.S. government's official web portal to all federal, state and local government web resources and services.